Skip Page Navigation
NASA JPL Caltech
NASA Logo - Jet Propulsion Laboratory + View the NASA Portal
+ Center for Near-Earth Object Studies
JPL Home Earth Solar System Stars & Galaxies Technology
JPL Solar System Dynamics
BODIES ORBITS EPHEMERIDES TOOLS PHYSICAL DATA DISCOVERY FAQ SITE MAP
IMPORTANT: The SSD Announcement email list is now available. Major changes are coming in the near future, including possible hostname and/or URL changes. To be notified of such changes, subscribe to this email list.

Please visit this page for more details.


JPL Small-Body Database Browser
Search: [ help ]  
117851 (2005 JE151)
Classification: Jupiter Trojan          SPK-ID: 2117851
Ephemeris | Orbit Diagram | Orbital Elements | Mission Design | Physical Parameters | Discovery Circumstances ]

[ show orbit diagram ]
Orbital Elements at Epoch 2458600.5 (2019-Apr-27.0) TDB
Reference: JPL 19 (heliocentric ecliptic J2000)
 Element Value Uncertainty (1-sigma)   Units 
e .04345745078493794 7.1481e-08  
a 5.223258536802938 1.3928e-07 au
q 4.996269036002817 4.331e-07 au
i 14.68640253562812 7.1415e-06 deg
node 182.7544276598307 2.3713e-05 deg
peri 159.0177119238236 8.0303e-05 deg
M 330.1303621274533 7.6823e-05 deg
tp 2458962.274679658199
(2020-Apr-22.77467966)
0.00092802 TDB
period 4360.243175115776
11.94
0.0001744
4.775e-07
d
yr
n .08256420239461555 3.3024e-09 deg/d
Q 5.450248037603058 1.4533e-07 au
  Orbit Determination Parameters
   # obs. used (total)      351  
   data-arc span      8445 days (23.12 yr)  
   first obs. used      1996-09-10  
   last obs. used      2019-10-25  
   planetary ephem.      DE431  
   SB-pert. ephem.      SB431-N16  
   condition code      0  
   norm. resid. RMS      .53859  
   source      ORB  
   producer      Otto Matic  
   solution date      2019-Nov-07 13:55:36  

Additional Information
 Earth MOID = 3.9925 au 
 Jupiter MOID = .0333219 au 
 T_jup = 2.933 
[ show covariance matrix ]

Ephemeris | Orbit Diagram | Orbital Elements | Mission Design | Physical Parameters | Discovery Circumstances ]

Physical Parameter Table
Parameter Symbol Value Units Sigma Reference Notes
absolute magnitude H 12.5   n/a MPO412804  

117851 (2005 JE151)          Discovered 2005-May-03 by CSS at Catalina
Reference: 20051019/Numbers.arcLast Updated: 2005-10-26

Alternate Designations
 2005 JE151 = 1996 RW27 = 1997 TP29 
Ephemeris | Orbit Diagram | Orbital Elements | Mission Design | Physical Parameters | Discovery Circumstances ]
ABOUT SSD CREDITS/AWARDS PRIVACY/COPYRIGHT GLOSSARY LINKS
FirstGov 2019-Dec-08 05:58 UT
(server date/time)  
NASA Home Page
Site Manager:   Ryan S. Park
Webmaster  Alan B. Chamberlin